Back to catalog

TITAN 3C TRANSTAGE DEB

LostHEO
NORAD 28816·DEBRIS·🇺🇸 United States

Launched Dec 21, 1965 from Cape Canaveral Space Force Station

Loading…

Next Passes (next 24 hours)

TLE

StaleSource: Space-Track

Epoch: Mar 1, 2022, 05:56 UTC

1 28816U 65108CD  22060.24740455 -.00000166  00000-0  00000+0 0  9999
2 28816  26.0857 121.3308 6515685 223.2537  22.2759  2.63278248163709

Track TITAN 3C TRANSTAGE DEB in real time with AllMySat

Download on the App Store